This demonstration page uses our WeatherBlox Daily Observations layout. Learn more.

Left ArrowRight Arrow

44.8408, -93.29828

Hourly Observations for July 16, 2021

Temp ( °F °C ) Dew Point ( °F °C ) Humidity (%) Winds ( mph kmh ) Pressure ( in mb ) Visibility ( mi km ) Precip ( " mm )
12:53 am 00:53 Clear 69 20.6 57 13.9 66 66 Calm 30.01 1016 10 16 0.00 0.00
1:53 am 01:53 Clear 69 20.6 57 13.9 66 66 Calm 30.01 1016 10 16 0.00 0.00
2:53 am 02:53 Clear 68 20 57 13.9 68 68 Calm 30.01 1016 9 14 0.00 0.00
3:53 am 03:53 Clear 66 18.9 59 15 78 78 Calm 30.01 1016 8 13 0.00 0.00
4:53 am 04:53 Clear 64 17.8 58 14.4 81 81 Calm 30.02 1017 8 13 0.00 0.00
5:53 am 05:53 Hazy 64 17.8 59 15 84 84 Calm 30.03 1017 6 10 0.00 0.00
6:53 am 06:53 Mostly Sunny 66 18.9 60 15.6 81 81 Calm 30.03 1017 8 13 0.00 0.00
7:53 am 07:53 Mostly Sunny 71 21.7 58 14.4 63 63 Calm 30.04 1017 8 13 0.00 0.00
8:53 am 08:53 Mostly Sunny 74 23.3 58 14.4 57 57 N 3 6 30.05 1018 8 13 0.00 0.00
9:53 am 09:53 Sunny 77 25 58 14.4 52 52 Calm 30.05 1018 8 13 0.00 0.00
10:53 am 10:53 Sunny 80 26.7 53 11.7 39 39 SE 5 7 30.04 1017 9 14 0.00 0.00
11:53 am 11:53 Partly Cloudy 82 27.8 54 12.2 38 38 E 7 11 30.04 1017 9 14 0.00 0.00
12:53 pm 12:53 Partly Cloudy 84 28.9 54 12.2 36 36 SSE 8 13 30.03 1017 9 14 0.00 0.00
1:53 pm 13:53 Partly Cloudy 81 27.2 54 12.2 39 39 VRB 3 6 30.02 1017 9 14 0.00 0.00
2:53 pm 14:53 Partly Cloudy 84 28.9 53 11.7 34 34 VRB 5 7 30.01 1016 9 14 0.00 0.00
3:53 pm 15:53 Partly Cloudy 83 28.3 53 11.7 36 36 ENE 6 9 30.01 1016 9 14 0.00 0.00
4:53 pm 16:53 Partly Cloudy 85 29.4 52 11.1 32 32 VRB 7 11 29.99 1016 9 14 0.00 0.00
5:53 pm 17:53 Partly Cloudy 83 28.3 54 12.2 37 37 SSW 5 7 29.99 1016 9 14 0.00 0.00
6:53 pm 18:53 Partly Cloudy 82 27.8 56 13.3 41 41 VRB 7 11 29.99 1016 9 14 0.00 0.00
7:53 pm 19:53 Partly Cloudy 80 26.7 57 13.9 45 45 SSE 7 11 29.99 1016 9 14 0.00 0.00
8:53 pm 20:53 Mostly Sunny 79 26.1 57 13.9 47 47 S 6 9 30.01 1016 9 14 0.00 0.00
9:53 pm 21:53 Mostly Clear 78 25.6 57 13.9 48 48 SSW 5 7 30.02 1017 10 16 0.00 0.00
10:53 pm 22:53 Clear 76 24.4 58 14.4 54 54 S 3 6 30.03 1017 10 16 0.00 0.00
11:53 pm 23:53 Clear 74 23.3 59 15 60 60 Calm 30.04 1017 10 16 0.00 0.00

Powered by AerisWeather